Theta_e
290 289 289 292 292 291 291 291 291 289 290 290 287 287 290 290 285 283 287 287 286 289 291 293 292 293 292 292 291 293 294 293 291 292 294 294 292 292 291 292 292 292 292 293 293 293 292 290 292 291 290 291 290 290 291 290 288 290 289 288 289 288 288 289 290 290 290 291 291 291 291 292 292 292 293 292 293 293 293 294 296 297 299 300 300 302 304
289 287 286 290 289 290 290 290 290 291 290 290 290 290 291 290 287 289 289 288 288 291 293 294 293 293 292 291 291 290 291 292 292 291 291 291 292 292 292 292 292 291 292 291 291 290 290 290 291 291 292 293 290 289 291 289 289 290 289 290 289 289 289 290 289 289 289 288 290 289 290 291 291 291 291 291 291 291 292 292 293 293 293 295 297 298 300
286 287 286 287 289 289 287 289 290 290 290 290 291 291 290 290 289 290 289 287 287 293 296 294 290 291 290 292 291 292 291 290 291 291 292 291 291 291 291 291 291 291 290 289 289 289 289 290 290 292 291 291 289 288 288 288 288 288 287 288 288 288 289 289 289 289 289 290 289 289 289 289 289 290 290 290 289 290 290 290 291 291 290 293 294 295 297
283 286 283 284 286 287 287 287 288 289 288 287 289 288 291 289 288 289 288 284 285 292 295 292 290 290 291 291 291 291 290 290 290 291 292 291 290 290 291 291 290 288 288 289 290 290 291 290 289 289 290 289 287 288 287 287 287 287 287 287 287 288 288 288 289 290 290 290 289 289 288 289 289 288 288 288 288 289 289 289 290 288 289 291 292 292 294
283 286 285 283 282 282 282 284 288 290 290 291 292 293 293 292 292 288 286 287 292 294 292 292 293 292 291 292 292 291 292 292 292 292 292 292 290 290 289 288 288 288 289 290 290 290 289 290 290 290 288 287 287 287 286 286 285 285 285 286 285 287 287 288 288 289 288 288 288 289 289 289 288 288 287 287 287 288 288 288 287 288 289 289 289 290 290
283 281 281 283 281 275 277 291 293 292 290 290 289 289 291 293 294 291 293 293 295 291 292 293 294 291 292 294 294 295 295 292 290 290 291 290 289 287 287 287 288 289 289 289 289 290 290 288 287 288 287 287 287 286 286 285 285 285 285 284 284 285 286 286 286 286 287 287 287 288 288 288 288 287 287 288 287 286 286 286 287 287 287 287 288 288 289
281 280 283 280 275 277 290 292 294 294 294 293 291 292 293 293 294 294 293 293 293 292 293 293 293 293 292 291 292 292 291 292 291 291 289 287 287 286 287 288 288 288 288 287 287 287 287 287 287 286 285 285 285 285 286 285 284 285 284 284 284 285 285 285 286 286 286 286 286 286 287 287 287 287 286 286 287 287 287 286 286 287 287 287 287 287 288
280 280 281 275 276 284 285 287 291 295 295 293 291 289 292 293 294 294 292 294 294 291 291 291 292 292 290 287 287 289 289 288 289 287 287 288 288 289 290 289 289 287 285 286 286 286 286 285 285 285 285 284 283 284 284 284 283 283 284 284 284 284 284 284 285 285 285 285 285 285 286 286 286 286 286 286 286 286 286 286 286 285 286 285 286 287 287
279 279 281 279 283 281 283 284 285 291 289 289 288 284 289 293 293 293 293 293 293 290 290 290 288 286 286 287 289 286 287 289 288 288 288 290 290 290 288 288 288 287 285 284 286 285 283 284 284 284 283 283 283 283 283 283 282 282 283 283 283 283 283 283 283 283 283 284 284 284 284 285 285 285 285 286 286 286 285 286 286 286 286 286 286 286 286
281 279 277 276 274 274 280 286 285 289 291 294 294 291 287 290 292 295 294 293 293 292 288 286 285 285 287 285 289 286 286 286 288 287 288 288 288 287 286 284 285 285 285 284 284 283 283 283 283 282 282 282 282 282 283 282 282 281 283 283 282 283 283 283 283 283 283 282 283 283 283 283 284 284 285 285 285 285 285 285 285 286 286 286 286 285 286
278 277 277 276 276 278 284 286 286 288 292 292 290 287 284 291 291 292 294 293 293 292 291 290 285 286 284 287 288 288 285 285 286 287 285 286 285 285 285 285 285 284 285 285 284 282 282 284 284 282 282 282 282 282 282 281 281 282 283 283 283 283 283 283 283 282 282 282 282 282 282 283 283 284 284 284 285 285 285 285 285 286 286 286 286 286 285
279 278 275 275 276 279 282 283 284 289 292 293 289 277 279 291 289 290 292 293 292 293 293 289 286 287 286 288 287 287 286 286 283 286 287 285 285 284 283 283 284 284 283 283 283 283 283 284 283 283 282 282 281 282 282 281 281 282 283 283 283 282 283 283 283 282 282 282 282 282 282 283 283 283 284 284 284 284 284 285 285 285 285 285 285 286 285
279 280 274 272 276 282 282 283 286 288 293 290 281 276 286 287 291 291 291 292 293 293 289 286 286 287 289 288 284 286 283 283 283 283 283 285 285 285 284 284 284 283 283 282 282 283 283 283 282 282 282 282 282 281 281 281 281 282 282 282 282 283 283 283 283 283 283 282 283 283 282 283 283 283 283 283 283 283 284 284 284 284 284 284 285 285 284
279 279 277 277 277 281 283 281 286 290 288 277 278 288 283 288 289 287 290 291 291 288 286 286 288 286 282 283 285 283 282 284 284 283 283 282 283 283 282 282 282 282 282 281 281 282 282 281 282 281 281 281 282 281 281 281 281 281 281 282 282 282 283 283 283 282 282 283 283 283 284 284 284 283 283 283 283 283 283 283 283 283 283 284 284 285 285
275 274 275 273 274 283 286 285 284 286 284 283 285 283 285 286 285 284 285 287 286 286 285 284 283 282 282 284 283 283 282 283 284 283 283 283 283 283 282 282 281 281 282 282 282 281 281 281 281 280 280 280 280 281 281 282 281 281 281 282 282 282 282 282 282 282 282 282 283 284 284 284 285 284 284 283 284 284 284 283 283 283 283 283 284 284 285
278 277 275 277 284 283 286 288 284 286 286 283 285 288 286 285 283 284 285 284 283 284 286 283 282 283 284 282 283 283 282 282 282 281 281 281 281 280 281 281 281 280 281 280 281 281 281 281 281 280 281 281 280 279 281 281 280 280 280 281 281 281 281 281 281 281 282 282 283 283 283 284 284 284 284 284 284 284 284 284 284 284 284 283 283 283 284
280 279 281 283 281 282 285 286 287 291 288 285 288 289 290 288 285 283 286 286 282 283 285 284 285 283 283 285 284 285 283 282 282 283 282 281 281 280 280 280 279 279 281 280 280 279 279 280 280 280 278 279 278 279 282 281 281 281 281 280 280 280 279 280 280 281 281 281 281 282 282 283 283 283 283 283 283 284 284 284 285 284 284 284 283 283 283
282 283 283 283 282 283 284 284 283 284 283 283 284 288 288 287 284 285 287 285 284 283 285 285 283 284 283 283 282 281 281 281 281 279 280 280 279 279 279 280 279 278 278 278 278 278 279 278 279 279 279 277 278 281 281 281 281 281 280 280 280 280 280 280 280 280 280 280 280 281 281 282 282 282 283 283 283 283 283 284 284 284 284 284 283 283 283
283 281 282 283 283 282 284 284 283 282 282 283 283 285 287 285 282 283 283 285 284 284 283 285 284 282 282 283 281 280 279 279 279 278 278 279 278 278 279 279 278 280 277 279 277 276 276 278 278 279 277 279 278 279 280 281 280 279 279 279 279 279 279 279 279 279 279 280 280 280 280 280 281 281 282 282 283 283 283 282 283 283 284 283 283 283 283
282 279 280 281 281 282 282 283 286 286 284 282 281 281 282 283 282 282 283 283 282 281 282 282 283 282 282 282 280 279 279 278 278 278 278 278 279 278 277 277 276 276 277 276 277 276 277 278 278 278 278 278 279 279 279 279 279 278 278 278 278 278 277 277 278 278 279 280 279 278 279 279 280 280 281 281 281 281 282 283 283 283 284 284 283 284 284
278 280 281 281 282 284 282 282 280 282 282 282 282 282 283 284 284 283 281 281 281 282 282 281 282 281 280 280 280 279 278 278 278 278 278 277 277 277 277 277 275 277 276 276 275 275 277 277 276 275 275 276 277 277 277 278 277 276 277 277 277 275 276 276 276 278 277 277 277 277 277 278 280 281 280 281 282 282 283 283 283 283 284 284 285 285 285
275 276 279 281 279 278 285 283 281 281 281 283 283 283 283 283 282 281 279 278 278 278 278 279 280 279 278 278 278 278 278 277 277 276 276 276 276 276 276 276 274 274 273 273 274 274 276 276 275 275 274 275 276 275 276 275 275 275 275 275 274 274 275 275 275 275 275 276 276 277 278 278 278 279 282 282 282 282 282 284 285 286 286 284 285 285 285
278 282 284 285 284 282 282 281 280 280 281 282 280 278 277 277 277 278 279 278 277 277 276 277 278 277 277 277 277 277 276 276 275 275 274 274 275 275 275 273 273 273 274 273 273 272 274 274 273 273 273 274 274 275 273 274 274 274 273 273 273 273 274 273 274 274 275 275 276 277 278 278 278 277 277 279 282 283 284 284 284 285 286 286 287 286 286
282 282 283 282 282 282 280 277 278 278 279 278 276 276 276 276 276 277 277 277 277 275 275 275 275 276 275 275 275 274 274 274 273 272 273 274 274 274 274 273 272 271 272 271 271 271 271 271 271 271 272 272 273 274 274 275 275 274 272 272 271 271 272 272 274 275 276 276 276 276 277 277 277 276 276 276 278 281 283 283 284 285 285 285 285 286 286
282 280 280 279 278 277 278 277 277 277 278 278 276 275 275 275 275 275 275 274 274 275 274 273 273 273 273 272 272 272 272 272 272 272 272 272 273 273 272 270 269 269 269 270 270 269 270 270 270 270 270 271 271 270 272 272 271 271 270 270 270 270 271 273 274 275 275 275 275 275 275 275 276 276 276 276 275 276 279 282 282 283 284 285 285 286 286
279 278 278 279 278 278 278 278 275 274 275 275 274 274 275 275 274 273 273 273 273 272 272 272 271 271 270 269 269 269 269 269 270 271 270 270 270 270 268 267 268 268 268 268 268 268 268 268 269 269 268 269 270 271 270 270 269 269 270 270 271 272 273 274 274 274 275 274 274 274 275 275 275 276 276 276 276 276 276 277 279 281 283 284 285 285 285
278 279 281 279 278 276 275 276 275 273 273 273 273 273 274 274 274 273 273 272 272 270 269 269 269 269 269 269 268 269 268 268 268 268 268 268 268 268 268 267 267 267 267 267 267 268 269 270 269 268 268 269 269 269 269 269 270 272 273 274 274 274 275 275 274 274 274 274 274 274 274 274 274 275 275 276 277 277 276 276 276 277 278 281 284 284 284
275 275 276 280 278 277 273 272 272 272 272 272 272 272 272 272 271 271 271 270 270 270 269 267 267 266 266 267 266 266 267 266 265 266 266 266 267 267 266 265 266 265 266 266 266 267 268 267 267 267 266 268 269 269 270 272 273 273 274 273 273 273 273 273 273 273 273 272 272 273 273 273 274 274 275 276 276 276 277 278 278 277 278 280 281 283 284
273 275 276 276 277 275 274 273 272 271 270 271 270 271 271 269 268 268 268 267 267 267 266 265 265 265 264 264 264 264 264 264 263 264 264 265 265 265 265 265 265 265 265 265 265 265 266 265 265 265 266 269 270 272 271 270 270 270 270 270 270 270 270 270 270 270 270 270 271 271 272 273 273 273 274 275 276 276 277 277 277 278 278 279 280 280 282
273 275 275 275 274 274 273 271 269 269 268 269 268 267 269 270 268 267 267 266 266 265 265 264 264 263 263 262 262 261 261 261 262 263 263 263 264 263 264 264 264 263 263 263 264 264 264 264 265 266 269 271 270 269 269 268 267 267 267 267 268 268 268 268 268 268 268 268 269 271 271 271 272 273 273 274 275 275 276 276 276 277 277 277 278 278 278
273 273 274 274 273 273 271 270 268 267 267 267 267 267 266 267 266 265 265 264 263 263 262 261 261 260 260 259 259 260 261 261 261 262 262 263 263 263 264 263 262 262 262 262 263 263 264 265 267 268 269 267 267 266 265 265 265 265 265 266 266 267 267 267 267 266 267 268 268 269 269 270 271 272 272 273 273 274 274 275 275 275 276 277 277 277 278
271 271 271 271 271 270 269 269 267 266 265 266 266 264 264 264 263 262 262 261 260 260 259 258 258 258 258 258 258 259 259 259 259 260 260 261 262 261 261 262 262 263 262 262 263 265 266 266 265 266 265 264 264 264 264 264 265 264 264 264 264 263 264 266 266 266 267 268 268 268 269 269 269 270 271 271 272 272 272 273 274 275 275 275 275 276 276
272 272 271 269 268 268 266 265 265 263 262 262 262 262 261 261 261 260 260 260 259 258 258 257 256 256 256 257 257 257 258 259 259 260 259 259 260 261 261 262 262 262 262 264 265 266 265 264 263 263 262 263 263 264 264 264 263 262 262 262 262 263 264 265 266 266 267 267 267 268 268 268 269 269 269 270 271 272 273 273 273 273 273 273 274 275 276
272 273 273 270 269 269 267 264 261 261 262 262 261 260 260 260 259 259 258 257 257 256 256 256 256 256 255 256 256 257 258 258 258 258 259 259 259 260 261 262 262 263 264 264 264 263 263 261 260 261 263 263 262 262 261 261 262 262 262 262 262 263 264 265 266 266 265 266 266 267 267 267 267 268 269 270 271 272 272 272 272 272 272 273 273 275 276
264 263 263 262 261 261 262 263 261 260 259 259 257 256 257 257 256 256 257 257 255 256 257 257 256 257 255 255 256 256 256 256 258 258 258 259 258 259 260 261 261 261 260 260 260 261 259 258 260 261 261 261 261 261 262 262 262 262 262 263 263 263 263 264 264 264 265 265 266 266 266 267 267 269 270 271 271 271 271 271 271 271 272 271 271 271 271
261 260 259 258 257 256 257 256 258 257 257 257 256 255 254 254 255 255 255 256 257 257 257 257 257 256 255 255 255 256 256 256 257 257 257 257 258 259 259 258 258 257 258 258 260 259 259 260 262 262 261 261 262 261 262 262 262 262 262 263 263 263 263 264 264 265 265 266 266 266 267 268 269 269 270 270 270 270 270 270 269 269 269 269 269 269 268
257 258 258 257 257 255 255 256 256 255 254 253 254 253 253 253 254 254 256 255 256 256 255 255 255 255 255 255 255 256 255 255 256 256 256 257 257 256 256 256 257 258 259 257 259 260 259 260 261 262 261 261 261 261 262 263 262 262 262 262 262 262 263 263 264 264 265 266 266 267 268 268 269 269 269 268 268 268 268 267 267 267 267 267 266 266 266
255 255 255 255 254 254 253 253 253 253 252 252 252 253 253 253 252 253 253 254 254 255 255 255 255 255 255 255 254 254 254 254 254 254 255 255 255 254 254 256 256 257 256 256 259 258 258 260 261 261 261 260 260 261 262 262 263 263 263 263 263 263 263 264 264 265 265 266 267 266 266 266 266 266 266 266 266 266 265 265 265 265 265 264 264 264 264
254 254 254 253 252 251 251 251 250 250 251 251 250 249 251 252 252 253 252 252 252 254 254 254 254 254 253 253 254 254 254 253 253 254 253 253 254 254 254 255 255 256 257 258 258 258 259 260 261 260 260 260 260 261 262 262 263 263 263 263 263 264 264 264 264 264 264 264 264 264 264 263 264 263 263 263 263 263 263 263 263 263 262 262 262 261 262
253 252 253 252 251 252 250 250 250 249 248 248 249 250 250 251 251 251 250 251 251 254 253 253 254 255 254 252 252 253 253 252 252 252 252 252 252 252 254 255 255 255 256 259 259 259 260 261 260 259 259 260 260 261 262 263 263 263 263 262 263 263 263 263 263 263 263 263 262 263 262 262 262 262 262 262 261 261 260 261 260 260 260 260 260 260 261
253 252 252 252 251 252 250 249 248 248 248 248 248 250 250 252 251 250 251 252 252 252 252 253 254 255 254 252 252 252 253 253 252 251 250 249 250 251 253 253 254 254 257 259 259 260 260 260 259 259 259 260 260 261 262 263 262 262 262 262 262 262 262 262 262 262 261 261 261 261 261 261 261 260 261 260 260 260 260 259 259 259 259 258 258 259 259
252 251 251 251 251 251 251 250 249 248 249 248 249 249 249 250 251 252 253 253 253 253 251 252 254 254 253 252 252 252 251 251 250 250 250 251 251 251 252 254 254 253 259 259 259 259 258 258 259 259 259 260 261 262 262 262 261 260 260 261 261 261 261 261 261 261 261 261 261 260 260 261 260 260 260 260 260 260 260 259 259 259 259 259 259 259 258
248 248 248 249 250 248 246 247 247 247 247 249 248 248 249 248 249 250 250 250 250 250 250 250 251 253 253 251 250 250 251 250 249 249 250 250 251 252 253 254 254 255 258 258 258 256 256 256 257 257 260 260 261 261 261 260 259 259 259 260 260 260 260 260 260 260 260 260 260 260 259 259 259 259 259 258 258 258 258 258 258 258 258 258 258 258 258
247 247 246 247 247 247 246 245 246 246 247 250 248 247 248 247 249 250 251 251 251 251 250 250 249 249 250 249 249 250 252 250 250 248 248 252 253 250 249 251 252 255 258 257 257 256 255 256 256 258 260 260 261 261 260 259 258 258 258 259 259 259 259 259 259 259 259 259 259 259 259 259 258 258 258 257 257 257 257 257 257 257 256 256 256 257 257
245 247 246 247 246 246 246 247 247 250 249 247 246 247 248 249 250 250 250 251 251 252 251 251 250 250 250 249 251 252 253 252 251 250 250 251 251 252 251 256 254 254 256 258 257 256 256 256 258 260 260 260 260 260 258 258 258 258 258 258 258 258 258 258 258 258 258 258 258 258 258 258 258 258 257 257 258 257 257 257 257 257 256 256 256 256 256
245 244 245 249 246 247 248 248 247 247 246 247 249 252 252 251 251 250 248 249 249 251 252 251 250 251 251 251 250 250 248 250 250 249 253 253 254 253 252 256 254 257 258 258 256 256 255 258 259 259 259 259 260 258 257 258 258 257 257 257 257 257 257 257 257 257 257 257 258 258 257 258 257 257 257 257 257 257 257 258 257 257 256 257 257 257 257
245 244 243 245 247 247 247 246 246 247 247 247 250 253 252 249 249 249 248 249 249 250 250 249 249 250 249 250 252 250 251 251 252 252 252 252 253 254 255 257 257 257 257 256 256 256 256 258 259 259 259 259 259 256 256 256 256 256 257 256 257 256 256 256 256 256 256 256 257 257 257 257 256 256 256 256 256 256 256 256 255 255 256 256 256 257 256
246 247 247 245 246 246 246 246 246 247 247 251 252 253 250 249 248 247 248 248 249 249 249 247 249 248 248 247 248 250 252 250 250 252 247 246 247 248 251 250 254 257 258 258 258 258 258 258 258 258 258 258 257 256 255 255 255 256 256 256 255 255 255 254 254 254 255 256 256 255 255 254 255 255 255 254 254 255 255 255 255 255 255 255 255 255 255
246 247 247 246 246 246 246 247 247 250 252 252 250 253 251 249 248 248 249 248 246 248 248 247 246 247 247 250 248 249 250 252 254 254 250 248 249 250 251 255 256 257 256 255 255 255 257 258 258 258 258 257 255 255 255 255 256 256 256 256 255 254 254 253 253 253 254 254 255 255 254 254 254 254 254 254 254 254 254 254 254 254 254 255 254 255 255
246 245 246 248 249 249 249 250 252 253 254 251 252 253 250 249 250 253 251 250 249 251 249 248 248 249 249 247 248 250 250 250 252 252 252 252 249 249 252 252 253 256 257 254 253 254 256 257 256 256 256 254 253 254 254 254 255 255 255 255 255 253 254 255 256 255 254 254 254 254 254 254 253 254 254 253 253 254 253 253 253 254 255 254 254 253 253
248 251 252 253 253 253 251 253 255 254 252 253 252 251 251 251 254 254 251 250 248 250 252 250 248 249 248 248 247 247 248 248 249 254 251 251 250 254 255 253 252 254 255 253 252 252 251 251 252 254 255 254 253 252 252 253 253 254 254 253 253 254 253 254 253 252 252 253 253 253 253 252 253 253 252 252 252 252 252 252 252 252 251 251 252 252 252
252 252 251 250 251 251 251 252 252 253 253 253 252 252 252 253 251 253 251 255 252 252 251 248 252 247 245 245 248 246 246 247 249 249 252 252 251 249 252 255 251 251 250 249 249 247 248 250 254 255 255 253 252 251 254 254 253 252 252 253 253 252 253 253 253 252 251 252 252 252 252 252 252 251 251 251 251 251 251 251 251 251 251 251 251 251 251
Wind_Speed
18 8 8 13 14 16 16 19 17 20 19 17 21 20 17 14 14 17 14 12 13 16 17 16 16 15 12 9 7 6 6 5 3 2 1 2 3 4 5 6 4 3 4 5 6 5 4 5 6 5 5 5 4 3 2 4 4 4 4 4 5 5 5 5 5 5 6 5 6 6 7 7 8 8 8 8 7 7 6 7 6 6 7 7 8 8 7
17 9 6 8 15 13 16 17 16 17 18 21 21 20 18 14 11 12 13 12 19 19 19 21 12 10 6 5 6 4 4 3 3 3 5 5 5 5 6 6 5 5 6 4 3 4 4 4 4 5 5 5 4 4 4 4 4 4 4 4 4 5 5 6 5 5 5 5 6 6 7 7 8 8 8 8 9 8 8 7 7 6 6 6 7 8 9
14 10 5 6 11 14 18 19 18 16 15 16 18 17 16 15 13 14 15 14 17 17 18 9 3 8 4 10 8 7 6 5 5 5 5 5 6 7 6 5 6 6 1 2 1 3 3 2 3 4 3 2 2 2 3 3 4 4 3 4 4 3 4 4 5 5 6 7 6 7 6 6 7 8 9 8 8 8 8 8 8 7 6 7 7 6 7
13 13 10 9 7 9 14 17 18 18 18 18 19 20 20 18 21 20 13 8 11 16 18 4 4 4 7 8 8 7 5 5 4 5 6 6 6 6 6 6 3 2 2 1 2 2 2 2 3 2 1 1 1 2 2 3 4 3 3 4 4 4 4 4 5 6 6 7 8 8 7 7 7 7 7 8 8 8 8 9 8 7 7 7 7 6 6
15 14 14 11 3 1 8 13 15 20 22 22 22 22 20 20 17 16 15 18 19 14 1 5 13 9 7 8 6 5 6 7 7 8 9 8 6 6 5 1 0 0 2 4 3 2 2 2 1 0 1 0 1 1 2 3 2 3 4 4 4 4 4 5 6 6 7 8 8 8 8 8 8 8 7 8 7 8 9 8 7 8 8 8 7 7 6
11 6 8 7 7 14 14 11 17 19 21 22 21 20 22 22 18 15 15 17 14 5 7 15 18 5 9 8 9 7 8 7 8 9 8 7 6 3 1 2 4 4 3 2 1 1 1 0 1 1 1 0 1 1 1 3 2 3 2 3 3 4 4 5 5 5 6 7 8 9 9 9 9 9 8 9 8 6 7 7 7 8 7 8 8 7 7
9 7 10 9 19 15 1 3 14 19 22 20 22 22 20 16 14 11 12 17 14 6 7 7 5 3 5 6 7 8 8 8 9 10 8 6 5 4 3 4 4 4 4 3 1 1 1 0 0 0 1 1 1 1 1 2 2 2 3 3 4 4 5 5 5 6 7 7 8 8 9 9 9 9 8 8 9 8 7 8 8 9 9 9 8 7 8
4 8 11 12 7 2 3 4 5 16 13 14 15 15 17 22 24 24 24 24 18 5 5 5 5 3 3 1 4 7 7 6 7 5 7 7 6 7 7 8 6 6 5 5 5 3 1 0 0 0 1 2 2 2 1 2 2 3 2 3 3 4 4 5 5 5 5 6 7 7 8 9 9 10 9 8 9 9 8 8 6 6 7 5 8 8 7
11 6 14 9 3 3 2 1 3 14 17 18 21 18 21 21 15 15 17 18 13 5 7 6 3 1 1 2 7 4 5 5 3 4 5 9 8 6 5 6 6 4 4 3 2 1 1 1 0 1 1 2 2 3 4 4 4 3 3 4 4 4 4 4 4 5 4 5 6 6 7 8 9 10 10 12 10 6 9 9 9 9 8 7 6 7 8
3 9 7 2 0 7 9 10 1 1 2 7 9 11 11 6 12 15 18 18 17 12 4 4 3 3 3 7 11 4 3 3 6 4 5 5 5 5 5 3 2 1 1 1 1 3 3 3 3 2 2 2 2 4 4 4 4 4 4 5 4 5 5 5 5 5 4 4 5 5 5 6 8 8 9 7 7 6 8 11 11 10 9 10 7 5 7
3 1 10 7 10 9 7 11 6 6 10 12 10 4 13 8 14 13 14 15 11 10 10 10 5 4 7 13 9 7 5 4 6 10 6 6 6 6 6 6 5 3 2 3 3 2 2 1 2 2 0 1 3 3 2 2 3 4 5 5 5 6 7 6 6 5 5 4 5 5 5 6 6 8 8 9 9 7 8 8 9 9 8 9 9 5 5
4 3 1 4 2 4 4 5 4 11 12 15 11 8 10 13 11 12 13 14 13 13 16 10 9 12 12 15 6 8 7 7 6 8 10 7 6 5 4 3 4 4 3 3 1 1 0 0 1 1 0 2 3 3 3 2 4 4 4 4 4 5 5 6 6 6 5 6 5 6 7 7 6 6 7 7 8 9 8 7 9 9 8 8 10 9 5
6 7 2 2 6 5 4 5 7 7 16 13 10 10 11 6 13 14 14 16 18 17 12 10 11 11 9 4 5 11 6 6 4 2 4 6 7 7 5 4 5 5 4 4 4 3 2 1 1 1 1 3 3 2 2 4 4 3 4 4 4 5 5 6 7 6 6 6 8 7 6 7 7 6 6 7 7 8 9 8 8 9 9 9 9 10 6
7 6 5 6 4 6 7 1 11 12 9 5 13 10 4 15 13 8 12 18 14 7 10 9 9 6 2 5 7 8 7 8 7 5 5 4 3 1 2 4 5 5 4 3 2 1 1 1 2 2 2 2 1 1 3 4 4 3 4 4 4 5 6 6 7 7 7 7 6 7 7 7 8 8 6 6 6 7 7 8 10 10 9 9 9 10 8
5 3 2 1 6 3 9 12 2 3 10 7 5 4 1 2 5 6 6 8 6 8 7 5 5 6 5 7 8 7 6 7 7 6 5 5 5 4 3 4 1 3 4 4 4 4 4 4 3 3 3 4 3 2 4 4 3 3 4 4 5 6 6 7 6 6 6 7 8 7 8 8 9 10 8 7 6 5 7 8 9 10 10 9 9 10 10
7 7 8 8 5 6 7 15 10 7 6 2 7 6 5 0 3 5 5 3 5 7 9 9 5 6 8 4 5 5 3 3 3 3 3 2 3 3 1 2 2 4 5 4 4 5 5 5 5 4 5 5 4 5 5 4 4 4 4 5 5 6 6 6 6 6 5 6 7 7 9 10 10 10 10 9 8 6 6 6 8 10 8 7 8 9 10
5 5 2 1 2 2 2 0 1 11 6 3 5 6 6 6 3 2 4 6 4 4 9 9 10 5 5 6 5 6 4 4 3 3 2 2 2 3 2 3 2 4 4 4 3 4 4 5 5 5 4 4 5 5 5 5 5 5 6 5 6 6 6 6 6 6 6 6 6 6 7 8 10 11 11 9 10 8 7 8 8 9 10 7 7 9 10
2 2 2 1 1 1 4 1 0 0 2 1 0 6 6 1 3 6 7 6 7 4 6 11 2 5 7 7 4 4 4 4 2 2 3 4 4 3 4 4 3 3 3 3 3 4 5 4 5 4 4 4 4 5 5 6 6 6 6 7 7 7 7 7 7 7 7 7 5 6 7 7 7 8 9 10 9 9 7 8 8 9 10 8 8 8 9
5 8 1 3 3 2 6 0 3 4 3 1 1 4 5 5 5 4 2 8 7 8 5 7 9 6 5 7 5 4 4 3 2 3 4 4 4 4 4 4 4 5 4 4 4 3 4 4 4 4 5 4 4 4 6 6 6 6 6 7 7 7 7 7 6 6 8 8 9 8 7 8 8 8 8 8 8 9 8 8 9 9 9 9 8 7 9
8 3 3 2 2 1 2 2 3 2 1 3 3 2 4 6 5 5 5 6 8 4 7 6 10 7 5 8 6 5 4 4 3 3 4 4 5 4 3 3 4 4 4 4 4 3 3 3 4 4 4 5 5 6 6 6 6 6 6 6 7 7 7 7 6 7 7 10 10 9 9 8 9 9 8 7 9 9 8 8 9 11 9 9 8 9 10
1 3 1 0 1 0 0 0 2 1 2 4 5 5 6 7 10 9 9 6 4 6 7 7 10 9 5 6 7 7 5 5 5 4 3 4 3 4 5 4 4 4 4 5 5 5 4 3 4 4 4 4 5 6 6 6 6 5 6 5 6 6 6 6 7 7 7 8 8 9 9 9 8 8 9 9 9 10 7 7 7 9 11 11 9 8 9
2 6 3 5 5 3 6 2 1 2 2 5 7 7 8 6 8 7 12 9 10 11 8 6 8 10 6 4 6 8 6 6 5 4 3 2 2 2 2 2 3 4 4 4 5 6 5 5 5 5 5 5 5 5 5 4 4 5 6 6 6 6 6 7 8 8 8 8 7 8 8 9 10 10 9 12 12 10 11 9 13 15 12 12 11 10 12
7 7 8 7 4 3 2 3 2 3 3 7 10 8 7 6 5 4 10 11 11 11 10 8 9 8 7 5 6 8 6 5 4 3 2 2 2 3 3 4 5 5 5 6 6 7 7 7 7 7 6 6 6 6 4 4 5 6 7 8 8 7 7 7 8 9 9 9 8 8 7 8 9 12 14 9 10 16 16 16 15 15 16 16 16 15 12
1 1 4 3 2 4 3 3 6 6 5 12 13 8 8 7 7 8 10 8 10 8 8 9 8 7 8 7 7 7 6 5 6 6 5 4 4 4 5 6 6 6 6 6 7 7 7 6 6 6 6 7 5 5 4 6 6 7 6 6 8 8 8 8 9 9 8 9 9 8 8 7 8 10 11 15 14 7 11 15 13 15 16 16 17 16 17
2 1 2 3 9 11 7 8 8 8 6 8 11 8 7 9 8 8 11 9 7 8 8 8 8 8 8 8 7 7 5 5 5 5 4 4 5 5 5 5 5 5 6 6 6 6 6 6 7 6 4 5 4 4 5 6 6 6 6 6 8 8 8 8 9 10 9 9 9 9 9 9 9 8 10 11 14 16 8 7 13 16 15 15 15 15 14
7 8 9 10 11 10 8 11 11 8 7 7 9 7 8 9 10 11 10 9 8 8 9 7 7 7 7 7 6 4 3 5 5 5 5 5 5 4 6 6 8 8 8 7 7 7 7 7 7 5 4 4 5 6 6 6 6 6 7 6 7 7 8 9 9 8 7 8 9 9 9 10 10 10 10 10 12 13 16 17 10 8 9 11 12 14 14
6 5 12 13 8 6 7 2 7 4 7 8 10 9 7 9 10 10 8 9 9 9 8 7 6 5 6 6 5 6 6 5 3 5 5 4 4 7 7 6 8 7 7 7 7 7 8 7 5 5 5 6 6 5 5 6 7 7 8 8 7 9 14 13 9 8 8 7 8 8 9 9 10 11 11 11 11 12 12 13 16 16 11 8 8 9 13
5 5 3 6 9 8 6 8 9 7 7 7 7 8 6 6 8 9 9 8 8 6 7 9 8 8 7 7 8 6 6 7 6 7 6 5 6 6 5 6 7 6 6 6 6 6 4 4 7 8 7 6 6 6 5 6 7 8 8 9 9 9 9 11 10 8 8 9 9 8 9 8 10 10 10 10 11 11 11 12 12 14 13 9 8 9 13
7 6 5 7 11 12 10 8 8 8 8 7 6 5 5 9 7 8 7 7 5 4 6 7 6 6 6 5 6 5 5 6 6 6 6 7 7 7 7 7 7 6 6 5 4 4 6 8 8 8 7 6 4 6 8 9 8 9 9 9 9 9 9 9 9 9 10 10 10 11 12 12 11 10 11 10 10 10 10 10 11 11 11 11 10 9 7
4 5 9 11 11 10 11 8 7 6 6 5 7 7 6 7 8 6 5 6 6 6 5 5 5 6 6 5 5 4 6 6 7 7 7 7 7 6 7 7 6 4 4 4 6 8 8 7 7 8 7 4 9 10 10 9 8 8 8 9 8 9 9 9 10 11 11 10 11 15 12 10 9 10 10 10 10 10 10 11 12 11 10 11 11 11 12
6 8 9 8 8 7 10 8 6 5 6 5 6 7 6 7 7 5 4 4 4 4 5 5 5 5 5 5 5 4 4 4 5 5 6 6 6 5 5 5 7 8 8 9 9 8 8 8 6 6 8 10 10 10 9 8 7 7 7 7 8 12 16 18 14 11 10 10 10 9 9 9 9 10 11 10 10 9 9 9 9 10 10 9 8 8 9
11 9 9 8 6 7 6 4 6 5 4 3 6 7 5 6 6 4 3 3 3 3 4 5 5 5 5 4 4 5 4 5 5 5 5 4 4 4 5 6 6 7 8 8 8 8 7 8 9 9 8 8 8 7 7 8 8 8 8 8 9 8 10 15 11 11 10 10 10 10 10 10 9 9 10 9 9 9 10 10 10 9 8 9 9 9 10
10 8 5 5 5 5 4 2 5 3 3 4 5 5 4 4 4 4 3 2 3 3 3 3 3 4 4 5 5 5 5 5 5 5 3 4 5 5 5 6 6 7 8 8 7 7 8 9 8 6 7 7 8 9 9 9 8 7 7 7 8 8 9 10 11 10 9 10 9 9 9 9 9 9 10 11 10 10 9 9 9 10 9 9 9 9 9
3 3 5 5 4 6 7 3 2 4 4 5 4 4 4 3 3 2 1 0 1 1 1 2 3 4 4 4 4 4 5 5 4 4 4 6 6 6 6 7 7 8 8 9 9 8 7 5 5 6 8 9 9 8 8 7 6 6 7 7 7 8 9 8 9 9 9 10 9 10 9 10 10 9 9 10 9 8 10 10 10 10 9 9 8 7 10
6 6 6 6 7 7 4 5 5 3 3 3 1 1 2 1 1 0 1 1 1 1 2 2 3 3 3 4 4 4 3 4 5 6 6 7 7 7 7 9 9 8 9 8 7 7 5 4 6 8 9 9 8 7 7 7 7 7 7 7 8 8 8 9 8 8 9 8 9 8 9 9 8 9 10 10 8 8 9 9 9 9 8 8 8 10 11
6 9 7 7 6 6 6 5 4 4 3 3 3 2 1 1 0 0 1 1 1 1 2 2 3 3 3 3 4 4 4 5 5 6 6 6 6 7 8 9 9 8 8 8 7 3 5 7 11 14 10 8 8 8 8 8 8 8 8 8 8 8 8 8 8 8 8 8 8 8 8 10 11 10 9 8 8 8 8 8 8 8 8 8 8 9 9
2 5 5 5 4 5 6 6 5 6 6 5 5 4 3 2 2 2 1 1 1 1 2 2 2 3 3 3 3 4 4 4 5 5 6 5 6 7 8 7 7 7 8 8 7 6 8 8 12 16 10 7 8 8 8 13 8 7 7 8 7 7 7 7 7 7 8 8 8 9 10 8 6 7 8 7 7 7 7 7 8 8 8 8 8 9 9
2 3 4 4 5 5 4 4 3 4 3 3 2 3 4 2 2 2 2 1 2 2 1 1 2 3 3 3 4 4 4 4 4 5 5 6 6 8 8 5 7 6 6 6 7 8 7 10 14 10 7 7 7 7 9 14 15 10 7 7 6 6 7 7 8 8 7 6 7 6 7 6 7 6 6 6 6 7 7 7 8 8 8 8 8 9 8
2 2 2 2 3 3 4 1 2 1 3 6 2 2 2 2 2 1 1 3 3 2 1 2 1 2 4 4 5 5 5 4 4 5 6 7 6 5 7 8 7 7 6 6 7 7 8 9 9 8 8 7 9 8 10 12 13 7 6 6 6 6 6 6 6 7 7 7 6 6 6 6 6 6 6 6 6 6 7 8 7 7 6 7 7 7 7
3 3 3 2 1 1 1 0 1 1 2 2 2 3 2 1 2 1 2 3 4 2 3 2 1 2 3 3 4 5 5 4 4 4 5 5 5 6 7 7 3 1 3 7 7 7 10 15 11 7 7 8 8 8 8 11 11 6 6 5 5 5 6 6 6 6 6 6 6 7 6 6 6 6 6 6 6 6 6 6 6 6 6 6 6 6 7
4 3 2 2 2 2 2 1 1 2 2 2 3 4 3 4 3 2 4 5 4 3 3 4 3 4 4 4 4 5 5 4 3 4 3 3 4 3 3 7 2 3 5 6 7 8 10 9 8 7 7 8 7 9 9 11 8 6 6 6 5 4 4 5 5 6 6 6 7 6 6 6 6 6 6 6 5 5 5 5 5 6 6 6 6 6 6
3 3 3 3 3 3 3 2 1 2 3 4 5 5 4 4 5 6 5 3 3 3 3 4 6 6 5 5 4 4 4 4 3 3 2 2 4 3 4 7 0 2 9 10 8 7 6 6 6 6 7 8 7 13 14 9 6 6 6 6 5 5 4 4 5 5 5 5 5 5 6 6 6 6 6 6 6 6 6 6 6 6 6 6 6 6 6
4 5 5 5 4 3 3 3 3 5 6 5 4 4 5 4 4 4 4 4 4 4 4 4 4 4 4 3 3 4 5 3 3 4 4 4 6 7 8 7 4 5 9 7 6 4 5 4 5 4 9 11 10 15 13 6 6 6 6 5 6 6 5 5 4 4 4 4 5 5 5 5 5 5 6 6 5 6 6 6 6 6 7 7 7 7 7
7 5 5 5 5 4 3 3 3 1 3 7 3 3 4 4 4 5 5 5 5 4 4 5 4 4 4 3 2 4 5 3 4 2 3 7 6 3 5 6 5 5 10 7 5 5 5 4 4 8 12 13 13 13 7 6 6 6 6 6 6 6 6 6 5 5 4 4 4 4 4 5 4 4 5 5 6 5 5 5 5 6 6 6 6 6 6
8 7 7 8 7 4 4 4 6 7 5 2 4 4 4 5 6 5 5 5 6 5 4 4 4 4 4 3 4 5 5 4 4 1 2 6 4 5 0 2 3 4 6 7 5 5 5 5 7 11 10 11 10 9 5 5 5 5 6 6 6 6 5 6 6 5 5 5 4 4 4 3 3 4 4 5 6 5 5 5 6 6 6 6 6 6 6
8 8 7 6 6 8 7 5 3 1 2 4 7 8 6 7 8 6 7 8 8 6 6 5 5 6 5 6 5 5 4 5 5 5 7 7 7 4 1 5 5 4 9 9 4 5 4 8 10 9 10 10 9 5 4 4 4 4 4 4 4 5 5 5 5 5 5 6 5 4 4 4 3 4 4 4 4 5 5 7 6 6 6 6 6 6 6
8 6 7 8 8 5 3 3 2 1 1 2 6 8 5 4 5 5 5 8 10 9 7 6 8 10 9 8 7 4 5 5 6 6 7 7 6 6 6 7 7 8 7 5 5 5 5 5 7 9 9 9 7 4 4 4 4 4 4 3 4 3 4 4 4 5 5 5 6 6 6 5 4 4 5 5 5 5 5 5 5 6 6 7 6 7 7
8 8 7 8 9 6 2 2 1 3 5 9 8 7 5 2 3 4 4 3 6 6 5 4 6 7 9 9 8 6 6 4 3 6 0 3 4 3 3 3 5 7 8 7 7 6 8 9 9 9 8 7 4 3 4 4 4 4 4 4 4 4 4 4 4 4 5 4 5 5 5 5 5 5 4 4 4 4 4 5 5 5 6 6 6 6 7
8 8 6 5 3 5 4 3 3 5 8 7 6 8 5 5 5 5 6 6 7 7 6 7 9 8 5 6 5 6 6 5 7 5 1 4 2 2 4 4 7 7 6 4 4 4 5 8 8 8 8 5 3 4 3 4 4 4 4 4 4 4 5 5 4 4 4 4 4 5 4 5 5 5 5 5 5 4 5 5 5 5 6 6 6 7 7
4 2 2 3 5 5 6 5 6 9 7 5 7 7 3 2 3 7 6 5 6 6 5 5 4 5 6 5 4 6 6 5 6 6 4 5 5 4 4 4 4 7 6 4 3 3 4 7 6 6 5 3 3 3 3 4 4 4 4 5 4 4 5 6 5 6 5 5 4 4 5 5 5 6 6 5 5 5 5 5 5 7 11 8 6 6 7
5 6 7 7 6 6 6 9 8 6 5 7 6 4 4 5 7 6 4 5 4 5 6 6 5 6 5 5 5 4 5 5 5 5 4 5 3 4 4 4 4 4 5 4 3 5 4 3 4 4 4 3 3 2 3 3 3 4 4 4 4 4 4 5 5 4 3 5 4 4 4 4 4 5 5 5 5 5 6 6 5 5 5 5 6 6 6
7 5 4 3 5 5 6 7 7 7 6 6 6 5 7 7 6 6 6 6 7 7 6 3 6 4 4 4 4 5 4 4 5 3 4 5 3 3 6 5 3 3 4 3 4 4 3 3 4 5 5 4 4 3 4 5 3 3 3 5 4 4 4 5 5 4 3 4 4 5 5 5 4 5 5 5 5 6 6 6 5 5 5 5 5 6 6
Wind_Direction
233 221 182 169 183 195 200 208 204 199 195 191 201 209 216 188 204 217 207 196 208 228 234 230 205 205 206 191 175 190 167 158 153 145 189 258 269 282 285 270 269 246 252 254 264 296 326 6 10 0 16 29 33 22 15 355 348 356 343 6 5 2 355 357 339 328 323 326 322 324 323 324 323 321 318 312 310 308 306 301 295 292 292 297 301 298 290
223 216 221 199 183 193 203 210 207 202 194 202 204 215 218 211 218 224 222 202 215 219 229 234 206 213 194 119 139 127 115 168 192 202 219 216 224 234 239 243 242 236 238 262 323 324 347 26 28 35 33 29 16 8 352 349 356 348 8 11 12 3 0 346 336 333 329 324 328 325 329 329 323 318 317 317 317 316 313 307 302 300 306 303 295 293 298
229 221 226 227 204 187 205 205 202 195 195 200 208 216 220 222 234 230 225 213 223 232 234 235 107 186 122 108 132 160 178 194 209 223 234 237 229 232 237 242 239 239 334 14 318 4 4 24 61 56 44 11 345 349 344 339 344 339 15 9 10 16 357 339 332 335 339 337 333 332 325 320 318 321 321 319 317 313 312 312 311 312 312 305 299 295 294
233 217 207 221 218 223 212 206 200 193 188 200 204 211 209 204 212 219 218 222 242 242 237 194 151 125 137 145 161 173 199 219 229 244 251 243 238 238 236 235 255 332 36 44 73 117 109 68 70 91 69 331 340 337 318 348 334 339 8 17 19 2 351 341 343 345 342 336 336 331 330 325 321 317 314 315 315 314 314 317 315 315 307 295 296 294 294
223 216 196 202 165 280 244 216 197 197 201 203 205 213 209 212 206 213 205 219 223 231 126 228 235 191 147 168 180 194 212 214 207 218 231 232 231 228 229 278 349 241 140 149 145 101 70 59 80 168 184 121 317 288 342 314 342 10 9 19 15 1 348 346 345 345 342 341 333 330 330 326 321 320 317 313 315 320 318 311 310 311 304 305 298 295 291
213 183 164 148 160 217 217 200 201 191 198 199 204 210 209 210 203 213 214 225 229 192 199 220 239 168 171 177 206 187 191 212 221 224 222 222 220 224 110 145 149 144 136 116 125 108 106 241 218 242 210 191 305 315 315 335 7 348 21 4 25 358 346 346 344 341 340 338 333 328 327 326 326 323 321 318 312 303 302 309 308 305 303 299 297 295 290
205 136 139 177 215 222 182 224 189 196 202 198 202 212 210 212 218 228 237 240 235 200 208 214 237 176 157 178 184 218 219 202 199 206 207 212 218 219 151 141 155 153 147 146 149 200 239 237 284 352 350 327 340 9 15 15 353 12 7 19 12 359 350 339 345 346 345 341 332 328 327 325 323 319 316 315 316 315 314 310 310 308 308 308 301 295 293
69 168 171 218 210 105 289 293 216 201 198 198 204 226 218 206 205 206 216 223 228 193 219 237 234 230 137 198 246 224 221 198 196 176 173 196 182 167 174 155 165 161 171 170 170 176 208 63 282 282 313 326 32 9 19 66 32 31 32 22 7 355 346 339 341 338 338 332 328 327 327 327 326 323 322 319 317 319 316 309 295 289 289 278 290 297 293
195 178 192 217 38 28 317 282 196 169 184 185 188 202 222 215 209 210 221 229 231 214 223 225 256 82 90 307 268 251 235 229 219 203 171 169 174 153 158 150 153 166 165 159 176 156 140 180 106 2 325 356 34 24 33 20 26 21 29 21 5 354 338 334 328 325 324 319 319 319 321 323 321 320 322 322 320 318 314 309 310 309 302 296 290 291 293
150 175 191 119 192 201 222 218 162 171 193 190 194 196 236 159 189 199 210 220 223 222 227 240 215 79 276 286 253 191 214 164 115 95 122 129 129 137 139 136 120 117 131 111 131 107 55 19 356 358 13 49 63 45 28 11 15 8 18 5 351 344 334 329 322 316 311 308 307 309 310 311 310 307 307 299 297 309 309 310 310 305 306 303 292 281 287
50 15 181 195 194 230 199 210 181 165 137 123 98 178 237 221 192 196 198 216 215 208 211 222 124 133 223 244 233 186 169 165 140 130 136 132 143 149 151 156 163 184 185 136 102 65 57 21 322 323 306 87 68 54 32 0 6 13 6 349 346 338 328 320 317 310 303 299 297 299 300 297 296 299 301 302 302 303 293 290 286 293 298 297 296 284 266
175 140 190 250 207 235 246 198 162 165 143 116 121 197 238 230 159 188 189 199 205 204 214 192 164 187 220 237 225 179 175 160 167 141 148 144 145 157 167 178 163 166 165 106 97 60 261 273 289 297 112 79 60 42 5 9 13 7 345 333 316 313 314 316 314 313 307 303 297 295 298 293 287 283 287 296 298 300 298 290 294 297 294 291 294 295 285
180 178 246 339 297 271 242 203 188 152 130 127 179 213 227 126 165 199 186 193 203 201 194 154 192 215 220 231 142 153 149 117 127 116 134 146 145 147 145 154 154 134 155 150 161 176 193 212 204 199 114 69 34 0 351 7 341 317 309 311 317 313 318 319 319 317 312 308 307 301 288 289 287 286 286 287 295 299 300 303 298 298 298 298 297 295 293
177 192 182 226 255 244 184 259 160 154 125 175 208 215 152 162 193 204 187 197 202 168 165 177 202 199 125 117 125 135 151 148 153 147 140 119 82 79 108 140 141 142 150 152 133 107 125 107 133 132 114 75 53 10 5 330 299 288 310 316 314 316 318 317 315 316 315 311 303 301 302 301 301 293 280 275 279 289 295 299 303 300 301 300 299 298 300
50 90 176 54 255 263 136 113 51 262 179 223 174 122 62 144 178 158 189 193 198 157 182 181 150 116 134 141 153 150 149 136 141 140 129 124 127 120 105 62 23 104 80 55 42 24 350 7 14 43 51 30 12 10 344 307 298 312 318 322 321 319 318 313 312 311 312 315 317 316 311 308 305 304 302 297 291 286 291 297 297 299 302 304 305 305 304
165 167 184 201 218 104 189 140 174 216 207 200 154 122 135 335 130 168 155 181 165 169 153 152 148 143 130 124 134 136 123 93 79 83 103 118 116 106 87 87 34 58 60 46 27 359 354 353 1 7 33 7 351 354 315 318 336 329 331 319 317 316 314 310 308 309 310 314 314 315 315 316 313 307 309 307 301 297 294 296 302 302 299 298 299 301 306
150 199 179 354 244 204 199 21 211 196 176 118 184 138 145 156 230 185 158 171 149 153 139 138 140 141 179 149 150 140 159 129 100 76 36 46 69 58 57 55 56 68 77 55 29 357 340 342 343 351 8 19 345 335 315 346 337 332 326 324 319 315 309 305 305 306 311 313 317 315 315 317 315 316 314 318 315 317 315 307 302 297 296 299 297 300 301
222 281 193 212 282 185 230 355 177 95 112 14 75 145 127 210 153 165 158 155 143 133 133 119 182 152 148 124 115 96 102 98 40 23 38 44 33 43 49 30 26 87 82 68 47 15 336 342 350 350 352 26 1 320 328 335 331 328 326 325 323 318 314 313 312 312 316 314 312 315 315 313 305 300 302 307 306 305 306 298 296 294 296 301 299 298 295
134 241 155 156 203 211 205 37 43 39 78 145 207 145 145 150 140 114 64 142 147 151 153 144 146 121 129 113 103 95 83 75 57 39 57 45 41 36 26 351 7 15 16 14 7 10 346 343 6 358 4 4 351 334 337 328 327 326 326 320 314 315 315 316 317 321 323 325 324 325 321 316 309 305 304 299 296 296 296 296 293 290 290 294 296 295 294
173 240 240 225 332 19 117 142 128 117 35 38 30 42 66 98 86 84 100 100 102 106 105 118 119 125 119 115 116 108 111 116 103 76 66 54 50 22 18 0 11 358 3 356 345 5 6 1 17 11 5 349 341 336 330 326 323 326 324 320 318 319 320 318 319 321 319 322 323 317 319 317 311 307 299 295 295 293 300 299 300 298 299 297 300 303 302
295 318 354 324 30 18 311 349 15 28 145 106 65 74 89 96 98 87 60 46 87 90 106 102 108 102 83 102 119 115 114 98 88 81 66 52 49 22 12 348 7 358 347 352 350 5 357 8 10 359 348 334 333 328 323 325 327 335 330 333 328 325 324 326 321 322 318 314 313 312 310 310 297 291 299 299 290 285 262 257 263 278 296 290 292 292 290
166 184 201 140 112 219 239 166 36 53 89 98 94 79 74 72 97 99 94 66 56 63 53 75 94 102 103 96 104 102 95 94 94 87 78 70 56 9 337 342 353 6 16 26 7 353 339 348 351 344 338 332 327 323 325 341 3 7 352 339 335 326 325 322 317 317 314 311 309 307 308 309 311 303 275 273 281 280 290 269 263 267 262 278 287 296 295
210 215 195 182 118 70 12 62 74 80 94 106 94 84 91 75 67 88 101 97 69 57 48 42 77 82 83 77 91 93 92 90 91 83 76 55 28 13 359 22 12 26 10 6 357 344 336 338 338 335 331 328 325 329 355 11 16 1 353 340 327 322 322 319 317 313 310 309 309 305 304 308 311 310 311 292 264 279 277 278 279 274 276 276 282 283 280
358 207 197 145 115 158 137 81 81 74 88 103 91 81 74 79 76 77 73 76 103 96 71 54 52 76 74 59 69 78 76 61 41 23 21 21 18 9 11 35 23 8 355 350 339 325 324 323 320 323 322 319 323 332 5 0 356 347 344 334 321 318 317 312 311 309 307 307 309 307 307 307 306 308 307 309 306 250 277 296 291 292 291 288 286 285 283
181 42 103 79 100 97 96 88 68 63 52 82 96 86 87 86 70 71 81 73 62 87 88 72 52 53 72 62 57 57 53 47 35 10 14 20 9 19 29 20 4 351 336 324 316 312 306 311 310 310 311 307 324 347 344 336 334 329 325 324 314 313 312 310 309 311 312 309 309 309 308 308 305 302 302 305 306 312 294 249 283 293 289 286 285 286 289
100 100 90 89 92 100 117 91 52 41 46 74 91 89 82 86 92 80 77 82 76 70 78 76 71 55 60 59 49 39 53 39 18 16 26 15 12 20 9 358 343 334 326 320 313 310 308 304 305 309 316 319 337 327 325 319 318 311 309 306 300 301 309 309 307 303 303 301 298 297 294 295 296 298 295 292 296 296 304 314 301 273 266 284 294 296 295
68 89 106 79 61 60 3 106 139 103 73 66 83 89 86 87 86 91 90 81 81 75 71 67 67 63 61 50 50 39 36 13 32 34 24 18 12 0 345 336 327 319 313 310 308 302 301 309 315 322 319 314 304 302 301 304 302 301 297 297 296 298 304 307 303 301 300 297 295 293 295 294 292 291 287 290 287 291 299 300 304 309 315 311 298 300 306
40 8 346 149 178 172 125 84 99 95 70 64 75 82 79 81 74 70 63 58 53 60 63 47 38 32 39 25 23 13 20 21 16 2 8 359 343 332 324 315 311 303 302 295 289 292 307 321 320 314 308 296 294 290 305 330 338 333 332 327 323 316 313 308 302 296 297 298 298 293 290 286 287 283 287 288 287 288 286 287 292 299 299 298 301 303 299
24 17 38 63 89 103 113 104 86 76 75 60 56 54 76 75 64 66 59 51 40 46 46 33 40 39 38 22 28 18 7 357 352 349 338 331 326 321 314 307 301 301 290 285 293 322 325 315 307 306 305 299 319 8 8 352 337 330 321 317 309 306 303 303 304 301 298 293 290 290 288 288 284 284 283 282 286 287 284 283 290 291 293 302 308 298 289
36 61 86 94 106 114 105 87 79 79 72 69 70 54 38 89 87 69 67 44 34 44 30 17 23 28 29 25 24 14 355 340 331 325 324 318 315 309 307 307 310 288 285 305 320 313 304 301 303 307 310 5 8 350 347 343 330 319 313 308 305 302 304 305 303 299 296 291 290 291 289 284 280 281 281 281 283 286 291 293 291 293 300 304 303 301 309
89 78 85 92 92 87 96 106 98 85 78 63 76 79 58 66 89 91 67 48 37 33 18 15 7 2 11 9 349 345 328 316 310 309 304 303 300 302 315 338 342 326 323 314 307 303 300 302 309 324 351 354 345 349 343 335 326 320 312 310 305 303 301 302 298 295 291 292 290 290 286 288 287 288 290 292 291 289 289 289 290 291 290 292 297 302 309
98 81 76 66 72 97 84 79 89 77 68 83 84 71 64 67 79 77 61 46 39 19 1 5 3 359 348 332 332 320 318 313 309 308 301 301 311 332 334 324 308 302 297 297 299 301 315 332 335 333 346 344 341 334 332 322 321 318 314 310 307 304 301 298 294 292 292 291 291 288 289 291 291 291 294 294 292 293 292 291 291 296 300 305 309 311 313
107 96 75 92 87 75 78 59 112 97 82 71 78 86 81 75 72 70 46 29 8 3 4 341 341 335 322 321 318 318 311 311 305 292 309 323 321 315 314 308 303 302 302 298 312 336 342 328 322 340 336 326 328 324 322 319 315 313 312 308 300 299 298 297 293 294 293 293 293 290 293 294 296 297 292 289 289 290 290 294 301 304 301 298 297 301 297
138 156 143 145 144 150 155 172 150 118 95 76 80 70 66 58 66 57 43 17 3 337 330 327 320 307 305 312 306 306 310 324 324 321 323 316 316 317 314 318 316 319 323 335 336 323 316 328 332 325 328 328 323 323 319 317 311 306 300 299 296 298 301 300 300 296 294 293 292 296 294 292 289 287 285 286 288 291 300 302 301 300 299 298 297 306 329
90 82 77 90 66 64 67 119 142 127 121 119 101 87 118 100 89 47 332 18 356 298 325 316 294 290 293 295 300 300 311 310 306 316 317 319 320 321 328 329 328 328 321 311 306 303 317 335 329 332 327 323 317 316 319 315 310 302 301 298 301 301 299 298 296 290 290 286 287 287 286 285 282 286 289 291 290 301 304 303 301 303 309 321 331 327 319
79 78 65 62 62 77 84 88 101 127 139 160 170 172 179 207 136 189 235 244 272 294 265 276 283 297 303 298 308 316 320 316 320 313 317 319 323 330 332 329 325 323 316 307 301 328 353 339 331 327 325 319 322 319 317 317 310 310 304 304 300 297 291 287 287 286 286 286 285 278 277 282 283 285 295 308 314 311 310 315 321 325 325 324 322 325 324
49 117 124 119 127 123 128 130 145 151 159 168 172 175 185 202 201 228 211 241 248 242 269 271 313 316 301 301 303 308 311 308 309 313 309 321 330 330 325 321 318 317 323 315 319 4 340 325 326 327 327 318 315 310 313 320 316 307 301 297 289 287 284 283 282 284 284 285 280 281 286 290 307 315 315 310 311 323 328 323 324 326 326 324 328 327 328
130 135 151 150 151 142 137 138 137 139 141 139 166 168 186 197 202 199 219 240 256 269 275 301 278 275 302 309 318 309 305 310 310 312 318 327 333 329 322 324 314 320 314 293 323 337 320 324 325 326 323 318 310 314 314 313 306 304 294 291 280 279 281 279 277 279 283 294 313 324 323 324 322 327 328 334 337 337 335 335 332 330 331 335 332 331 329
110 87 71 80 88 106 113 76 96 132 160 180 215 241 237 210 224 205 230 247 250 245 270 275 295 335 320 323 317 317 314 313 320 324 327 327 330 334 303 295 282 280 275 309 331 320 324 325 327 329 324 320 318 312 305 303 307 309 305 299 301 297 301 305 315 321 325 324 320 322 334 329 332 331 335 341 345 342 341 338 337 333 336 333 333 330 330
175 163 170 136 129 130 112 179 226 235 235 186 178 230 220 174 212 194 230 257 256 221 215 217 220 275 280 283 292 295 295 303 307 320 321 324 331 324 309 303 294 335 346 335 331 326 327 330 329 323 322 320 315 313 312 321 327 327 318 318 313 320 322 325 325 329 328 331 331 337 335 335 342 340 335 343 341 339 338 337 337 333 331 326 327 324 325
186 173 180 140 182 153 164 192 258 257 245 238 219 233 220 207 209 202 231 225 233 199 200 197 201 226 229 233 244 262 276 285 295 302 303 348 326 328 319 293 299 34 339 344 331 328 330 330 327 325 323 319 313 321 321 328 333 329 321 323 325 324 331 328 334 335 333 335 338 338 334 335 336 338 334 338 336 336 330 330 327 327 319 322 318 319 317
208 165 168 172 185 192 207 211 227 296 280 235 232 227 232 213 201 218 228 224 230 227 217 219 212 222 226 229 233 257 274 280 287 283 264 236 252 265 283 274 281 4 331 336 326 327 326 325 323 322 316 317 321 328 333 332 331 323 319 318 320 324 327 329 331 329 331 330 331 332 334 334 338 336 337 337 335 338 335 334 333 333 335 332 328 324 327
181 178 193 200 206 204 206 201 209 231 268 282 246 233 233 220 219 239 253 250 247 252 248 246 241 246 249 252 259 279 277 284 295 296 291 254 221 215 219 249 311 320 322 321 318 317 318 314 320 299 326 333 330 334 340 341 328 326 323 325 328 332 331 332 330 330 332 335 339 341 337 338 341 340 338 337 334 336 335 336 336 337 337 335 331 334 335
192 191 192 193 210 216 196 211 231 278 278 275 265 231 230 232 222 222 235 245 251 243 238 252 252 248 248 237 239 268 278 283 293 308 332 312 316 269 222 225 254 293 315 306 309 311 309 310 298 322 332 336 339 345 350 335 333 330 331 331 331 333 333 332 330 334 331 338 333 330 331 336 338 336 338 335 331 332 333 333 335 335 330 328 330 331 334
194 198 197 204 203 178 197 204 205 218 227 266 302 290 250 239 243 231 228 236 240 248 240 240 245 249 245 228 227 240 246 243 228 215 299 295 311 297 215 167 308 301 298 308 303 303 302 299 314 329 333 337 343 352 346 330 331 335 337 335 334 334 330 328 327 328 326 322 316 320 319 332 335 339 334 335 338 337 335 337 340 335 331 334 338 340 340
205 210 203 188 200 217 219 210 231 275 307 325 311 290 262 240 241 241 224 222 230 238 229 227 230 234 225 228 242 257 274 269 252 223 225 219 233 235 303 335 311 306 309 311 296 293 289 310 320 327 334 336 341 344 327 327 326 326 330 329 327 329 324 324 325 324 324 321 315 322 322 320 339 342 338 341 340 337 334 342 335 336 337 335 333 339 342
199 201 201 209 231 233 222 219 229 242 311 323 291 275 281 242 218 221 226 219 221 235 240 239 238 240 229 216 217 240 257 278 283 241 226 232 244 269 287 299 303 304 306 301 293 294 293 311 319 327 331 336 343 332 318 317 318 318 320 317 318 314 319 316 321 318 321 313 326 332 335 338 337 335 342 349 347 344 338 335 335 333 332 334 334 339 342
189 205 218 211 223 234 200 208 199 251 242 235 235 258 279 277 227 233 241 242 242 247 252 252 247 249 242 235 228 223 211 194 274 294 200 187 202 202 260 273 278 286 298 301 301 299 308 311 320 325 327 334 341 317 316 315 315 314 315 321 321 323 321 317 316 321 320 319 329 322 322 329 335 332 341 337 335 334 328 333 330 330 333 339 339 338 337
199 207 213 194 202 198 193 197 207 233 244 239 229 250 244 234 243 253 255 248 250 257 251 245 239 238 242 227 212 213 219 203 192 225 216 179 222 266 271 272 283 287 287 277 284 283 299 312 319 322 326 331 325 315 312 314 318 322 321 318 321 320 317 307 305 309 312 315 320 322 321 326 328 328 327 332 324 323 332 330 333 340 343 343 339 338 335
194 174 211 209 204 204 201 200 222 231 239 221 226 241 229 178 239 253 235 227 226 231 245 250 246 239 235 242 228 216 199 199 220 242 252 260 263 258 261 262 263 275 281 276 275 282 299 309 316 315 320 319 314 318 318 313 317 323 317 321 321 313 312 318 322 325 321 317 320 328 328 326 325 330 330 325 324 328 331 337 339 341 343 343 335 334 334
191 201 216 213 213 217 202 208 226 223 220 224 227 221 197 200 226 240 211 213 208 236 250 258 252 242 241 237 234 232 214 207 213 220 229 237 233 247 249 249 259 262 271 277 279 284 290 292 290 299 307 310 318 313 311 311 311 319 318 309 309 311 310 316 313 314 317 321 327 324 322 328 321 327 331 328 325 329 333 336 339 338 337 334 334 330 329
199 206 211 208 211 224 222 232 240 242 236 232 219 217 213 219 226 248 247 223 210 228 228 234 272 267 220 210 219 224 216 203 209 223 231 233 242 245 250 261 259 270 271 271 270 270 275 287 301 310 312 309 302 301 310 314 310 310 309 308 305 300 309 313 315 312 313 329 329 319 328 322 322 334 331 326 326 329 329 328 326 329 327 325 324 324 322